User: anonymous   Login
Location: *
(33.8649°S, 62.1526°E)
Time: 23:27:48
(UTC+00:00)
Language:

OAO 1 Rocket - Orbit

View from above orbital plane
View from above orbital plane
View from above satellite
View from above satellite

Ground track
Ground track

The orbit data is extracted from the following two-line orbital elements,

1  2144U 66031B   21102.82152252  .00000040  00000-0  17575-4 0  9993
2  2144  35.0437  31.4298 0007744  83.1364 277.0207 14.42797053889764
Epoch (UTC): 12 April 2021 19:42:59
Eccentricity: 0.0007744
inclination: 35.0437°
perigee height: 744 km
apogee height: 755 km
right ascension of ascending node: 31.4298°
argument of perigee: 83.1364°
revolutions per day: 14.42797053
mean anomaly at epoch: 277.0207°
orbit number at epoch: 88976

The dashed part of the orbit path shows where the satellite is in the earth's shadow,  

DLR